STARLINK-3100, 49144

Orbit data source: Space-Track

STARLINK-3100, 49144 is a payload satellite owned by SpaceX/Seattle (US) in LEO that was launched on Tue, 14 Sep 2021 UTC via an FALCON 9 launch vehicle from the Air Force Western Test Range (AFWTR). Payload-class satellites include a variety of spacecraft equipped with specific instruments for various scientific and technological missions. These include communications satellites like Starlink; space stations such as the ISS; scientific satellites like the Hubble; Earth observation satellites from companies like Planet Labs, Umbra, and HawkEye 360; GPS; miniature CubeSats for education and research; and military/defense satellites.

Loading next visibility...
Identifier
49144, 2021-082Q
Orbit
LEO
Country
Flag of USUS
Related business
Manufacturer
SpaceX/Seattle
Mission
Operational Commercial Communications
Bus & Motor
STARLINK, Unknown motor
Mass
297 kg wet, ~275 kg dry
Launch date (UTC)
2021-09-14 (4 years ago)
Launch vehicle
FALCON 9
Launch site
Air Force Western Test Range (AFWTR)
Object type
Payload
Rocket body
Debris
Shape & HBR
Box + 1 Pan, 10.1 m
Radar Cross Section
13.562 m², Large (>1 m²)

Expand to show TLE details & history
Last TLE update: 11 hours ago

TLE from 11 hours ago
0 STARLINK-3100
1 49144U 21082Q   26071.77240423 -.00000192  00000-0 -82774-5 0  9997
2 49144  69.9977 286.6719 0002794 267.7747  92.3092 14.98329875246443
Epoch: 2026-03-12T18:32Z
TLE epoch observation values (Epoch: 2026-03-12T18:32:15.725Z)
Latitude
-0.00004°
Longitude
-161.81113°
Altitude
574.559 km
Speed
7.574 km/s
True Right ascension
19h 06m 41s
True Declination
0° 00' 00"
Sunlit
Object was in daylight at epoch
Visualization orbit readout
Latitude
Unknown
Longitude
Unknown
Altitude
Unknown
Speed
Unknown
Apparent Right ascension
Unknown
Apparent Declination
Unknown
Sunlit
N/A
Visualization observer readout
Local Sidereal Time
10:07:15
Azimuth
Unknown
Elevation
Unknown
Doppler factor
Unknown
Orbital elements
Apogee altitude
571.946 km
Perigee altitude
568.063 km
Semi-major axis
6,948.142 km
Eccentricity
0.00028
Inclination
69.9977°
RAAN
286.6719°
Arg. of periapsis
267.7747°
True anomaly
92.34119°
Mean anomaly
92.3092°
Eccentric anomaly
92.3252°
Mean motion
3.74749 °/min
Orbital period
96.06 mins
BSTAR
-0.0000082774
Loading maneuver chart data...
Computing Atmospheric mass density...

Documentation

Showing up to 5 results
|